Search for airport 
image banner adimage banner adimage banner ad
image banner ad

06U - Jackpot/Hayden Field

Located in Jackpot, United States

ICAO - 06U, IATA -

Data provided by Airmate  

General information

Coordinates: N41°58'33" W114°39'29"
Elevation is 5224 feet MSL.
Magnetic variation is 16° East
View others Airports in Nevada

Operational data

Special qualification required
Current time UTC:
Current local time:
METAR: KTWF 130153Z AUTO 04004KT 10SM CLR 27/06 A2999 RMK AO2 SLP106 T02670056
TAF: KTWF 122324Z 1300/1324 35008KT P6SM SKC FM130400 17009KT P6SM SKC FM131500 08007KT P6SM SKC
View NOTAMs / SUP AIP / TFR affecting this airport [VIEW]
Communications frequencies: [VIEW]

Runways:

RWY identifierQFULength (ft)Width (ft)SurfaceLDA (ft)
15618360ASPH
33618360ASPH

Airport contact information

Address: Jackpot United States

Satellite view of 06U